NIGERIASAT X

Satellite information

Favourite Embed

Satellite Type and Status

PAYLOADIN ORBIT

Key statistics

Satellite NIGERIASAT X at a glance.

Uptime

5181

Days in orbit

Revolutions

≈ 14.6

Per day

Orbit

SSO

Sun Synchronous Orbit

Inclination

97.8

Latest

Satellite identification and parameters

Extended collection of information and parameters for NIGERIASAT X.

Object identification

Identified? True

Debris? False

Object name: NIGERIASAT X

International designator: 2011-044C

Object number (NORAD): 37790

Object ID (CCSDS): 37790

Country: NIGERIA (NIG)

Current information (Y/N): Y

RCS size: MEDIUM

Orbital parameters

Period: 98.59 minutes

Inclination: 97.8362 deg

SMA: 7069.399 km

Apoapsis: 700.144 km

Periapsis: 682.384 km

RAAN: 287.507 deg

Eccentricy: 0.00125609

Argument of periapsis: 9.3802 deg

Mean anomaly: 350.7632 deg

Mean motion: 14.60592321 rev/day

Mean motion (dot): 0.00000756 rev/day2

B* drag term: 0.00016427285 1/REarth

Two-line elements (TLE)

Creation date: Oct. 23, 2025, 2:46 a.m.

Reference frame: TEME

Reference center: EARTH

Epoch: Oct. 22, 2025, 10:08 p.m. UTC

TLE line 0: 0 NIGERIASAT X

TLE line 1: 1 37790U 11044C 25295.92291297 .00000756 00000-0 16427-3 0 9991

TLE line 2: 2 37790 97.8362 287.5070 0012561 9.3802 350.7632 14.60592321755533

Live tracking on map

Real-time ground track for satellite NIGERIASAT X.

In-orbit conjunctions

There are no conjunctions computed for NIGERIASAT X, at the moment. Check back to stay up to date, as we update our databases every day.

Go to all conjunctions

Associated space launch

NIGERIASAT X was lifted into orbit during the mission ‘Dnepr 1 | Sich-2’, on board a Dnepr space rocket.

The launch took place on Aug. 17, 2011, 7:12 a.m. from 370/13.

For more information about the launch, click the button.

Launch to space Dnepr 1 | Sich-2
Dnepr 1 | Sich-2

Agency: N/A

Status: Launch Successful

Launch date: Aug. 17, 2011, 7:12 a.m. UTC

Rocket: Dnepr

Launch pad: 370/13

Location: Dombarovskiy, Russian Federation

...

Latest news about this satellite

There are no fresh news available about this satellite. Check back as we update our databases every day.


Newsletter sign-up

Weekly statistics, charts and insights to help you stay on top of the space industry.